Flag for Germany Weather past 2 weeks in Oberhausen, North Rhine-Westphalia, Germany

Now
30 °F

Clear.


Feels Like: 25 °F
Forecast: 40 / 63 °F
Wind: 5 mph from Northeast

Location: Duesseldorf


UV Index: 3 (Moderate)

Visibility: 10 mi


Pressure: 30.42 "Hg

Humidity: 93%

Dew point: 28 °F

Location of OberhausenLocation

Historic Weather in Oberhausen

°F

Oberhausen temperature yesterday

Maximum temperature yesterday: 52 °F (at 4:20 PM)
Minimum temperature yesterday: 39 °F (at 1:50 AM)
Average temperature yesterday: 45 °F

Past Weeks' High & Low Weather Summary

 TemperatureHumidityPressure
High72 °F (Apr 1, 3:50 PM)94% (Apr 5, 5:20 AM)30.42 "Hg (Apr 5, 5:20 AM)
Low30 °F (Apr 16, 4:50 AM)29% (Apr 1, 5:20 PM)29.59 "Hg (Apr 3, 1:50 PM)
Average54 °F67%30.00 "Hg
* Reported Apr 1 5:20 AM — Apr 16 5:50 AM, Oberhausen, Weather by CustomWeather, © 2014

Note: Actual official high and low records may vary slightly from our data, if they occured in-between our weather recording intervals... More about our weather records

Advertising

Historic Weather Conditions — Data for Previous 24 hours

 ConditionsComfort  
Time TempWeatherWind HumidityBarometerVisibility
5:50 AM
Apr 16
30 °FFog.2 mph93%30.42 "HgN/A
5:20 AM30 °FClear.3 mph93%30.42 "Hg10 mi
4:50 AM30 °FClear.6 mph93%30.42 "Hg10 mi
4:20 AM32 °FClear.5 mph87%30.42 "Hg10 mi
3:50 AM32 °FClear.3 mph87%30.42 "Hg10 mi
3:20 AM34 °FClear.5 mph93%30.42 "Hg10 mi
2:50 AM34 °FClear.2 mph81%30.39 "Hg10 mi
1:50 AM36 °FClear.2 mph81%30.39 "Hg10 mi
12:50 AM39 °FPassing clouds.6 mph75%30.39 "HgN/A
12:20 AM41 °FPassing clouds.7 mph70%30.39 "HgN/A
11:50 PM
Apr 15
41 °FPassing clouds.6 mph70%30.39 "HgN/A
11:20 PM43 °FPassing clouds.7 mph66%30.36 "HgN/A
10:50 PM43 °FPassing clouds.7 mph66%30.36 "HgN/A
10:20 PM45 °FPassing clouds.8 mph61%30.36 "HgN/A
9:50 PM45 °FPassing clouds.8 mph61%30.36 "HgN/A
9:20 PM46 °FScattered clouds.10 mph57%30.36 "HgN/A
8:50 PM48 °FScattered clouds.12 mph50%30.33 "HgN/A
8:20 PM48 °FScattered clouds.9 mph50%30.33 "HgN/A
7:50 PM48 °FPassing clouds.13 mph50%30.33 "HgN/A
7:20 PM50 °FPassing clouds.12 mph47%30.30 "HgN/A
6:50 PM50 °FPassing clouds.10 mph47%30.33 "HgN/A
6:20 PM52 °FPassing clouds.12 mph44%30.30 "HgN/A
5:50 PM50 °FPassing clouds.12 mph50%30.30 "HgN/A
5:20 PM52 °FScattered clouds.14 mph47%30.33 "HgN/A
4:50 PM50 °FScattered clouds.15 mph50%30.33 "HgN/A
4:20 PM52 °FBroken clouds.13 mph44%30.33 "HgN/A
3:50 PM50 °FBroken clouds.12 mph47%30.33 "HgN/A
3:20 PM50 °FBroken clouds.13 mph47%30.33 "HgN/A
2:50 PM48 °FBroken clouds.12 mph54%30.33 "HgN/A
2:20 PM48 °FBroken clouds.14 mph54%30.33 "HgN/A
1:50 PM50 °FScattered clouds.10 mph50%30.33 "HgN/A
1:20 PM48 °FBroken clouds.14 mph54%30.33 "HgN/A
12:50 PM48 °FBroken clouds.14 mph50%30.33 "HgN/A
12:20 PM46 °FBroken clouds.10 mph57%30.33 "HgN/A
11:50 AM46 °FBroken clouds.13 mph57%30.33 "HgN/A
11:20 AM46 °FBroken clouds.13 mph57%30.30 "HgN/A
10:50 AM45 °FBroken clouds.14 mph66%30.33 "HgN/A
10:20 AM45 °FPartly sunny.13 mph66%30.30 "HgN/A
9:50 AM45 °FPartly sunny.12 mph71%30.30 "HgN/A
9:20 AM43 °FScattered clouds.12 mph76%30.30 "HgN/A
8:50 AM43 °FScattered clouds.8 mph76%30.30 "HgN/A
8:20 AM41 °FPartly sunny.9 mph81%30.30 "HgN/A
7:50 AM41 °FPartly sunny.7 mph81%30.27 "HgN/A
Weather by CustomWeather, © 2014

See weather overview